When you browse on this site, cookies collect data to enhance your experience and personalize the content and advertising you see.
Visit our Privacy Policy to learn more. By continuing to use the site, you agree to this use of cookies and data.
  • En España
  • Lista de países
  • Para 7 días
  • Temperatura del agua
  • El tiempo en el mapa
  • Informadores
  • user-avatar
    Iniciar sesión

    Tiempo cada hora Bracknell

    Hoy, 16 Diciembre, Lunes

    Tiempo Temperatura Precipitaciones Viento Presión Humedad
    00:00 +6°C° 0 mm 4 mps 742 mmHg 91%
    01:00 +6°C° 0.4 mm 4 mps 742 mmHg 90%
    02:00 +5°C° 0.4 mm 4 mps 742 mmHg 88%
    03:00 +5°C° 0.4 mm 4 mps 742 mmHg 86%
    04:00 +5°C° 0 mm 4 mps 742 mmHg 86%
    05:00 +5°C° 0 mm 3 mps 742 mmHg 86%
    06:00 +5°C° 0 mm 3 mps 742 mmHg 86%
    07:00 +5°C° 0 mm 3 mps 742 mmHg 87%
    08:00 +6°C° 0 mm 2 mps 742 mmHg 87%
    09:00 +5°C° 0 mm 2 mps 743 mmHg 87%
    10:00 +6°C° 0 mm 2 mps 743 mmHg 85%
    11:00 +7°C° 0 mm 2 mps 743 mmHg 83%
    12:00 +8°C° 0 mm 3 mps 743 mmHg 81%
    13:00 +8°C° 0 mm 2 mps 743 mmHg 83%
    14:00 +7°C° 0 mm 2 mps 743 mmHg 86%
    15:00 +7°C° 0 mm 2 mps 742 mmHg 88%
    16:00 +7°C° 0.1 mm 2 mps 742 mmHg 90%
    17:00 +7°C° 0.1 mm 2 mps 742 mmHg 92%
    18:00 +6°C° 0.1 mm 2 mps 742 mmHg 95%
    19:00 +6°C° 0.2 mm 2 mps 742 mmHg 94%
    20:00 +6°C° 0.2 mm 2 mps 741 mmHg 94%
    21:00 +7°C° 0.2 mm 2 mps 741 mmHg 93%
    22:00 +7°C° 0.3 mm 1 mps 741 mmHg 93%
    23:00 +7°C° 0.3 mm 1 mps 741 mmHg 93%

    Mañana, 17 Diciembre, Martes

    Tiempo Temperatura Precipitaciones Viento Presión Humedad
    00:00 +7°C° 0.3 mm 1 mps 741 mmHg 92%
    01:00 +6°C° 0.3 mm 2 mps 740 mmHg 93%
    02:00 +6°C° 0.3 mm 2 mps 740 mmHg 93%
    03:00 +6°C° 0.3 mm 2 mps 740 mmHg 94%
    04:00 +6°C° 0.1 mm 2 mps 740 mmHg 94%
    05:00 +6°C° 0.1 mm 2 mps 740 mmHg 94%
    06:00 +6°C° 0.1 mm 2 mps 740 mmHg 94%
    07:00 +6°C° 0 mm 2 mps 740 mmHg 94%
    08:00 +6°C° 0 mm 2 mps 740 mmHg 94%
    09:00 +6°C° 0 mm 2 mps 741 mmHg 93%
    10:00 +6°C° 0 mm 2 mps 741 mmHg 92%
    11:00 +6°C° 0 mm 2 mps 742 mmHg 90%
    12:00 +7°C° 0 mm 2 mps 742 mmHg 88%
    13:00 +7°C° 0 mm 2 mps 743 mmHg 88%
    14:00 +7°C° 0 mm 2 mps 743 mmHg 89%
    15:00 +8°C° 0 mm 1 mps 744 mmHg 90%
    16:00 +6°C° 0 mm 2 mps 744 mmHg 91%
    17:00 +6°C° 0 mm 2 mps 745 mmHg 92%
    18:00 +5°C° 0 mm 2 mps 745 mmHg 94%
    19:00 +5°C° 0 mm 2 mps 746 mmHg 94%
    20:00 +4°C° 0 mm 2 mps 746 mmHg 94%
    21:00 +4°C° 0 mm 2 mps 747 mmHg 94%
    22:00 +5°C° 0 mm 1 mps 747 mmHg 93%
    23:00 +4°C° 0 mm 1 mps 748 mmHg 92%

    Pasado mañana, 18 Diciembre, Miércoles

    Tiempo Temperatura Precipitaciones Viento Presión Humedad
    00:00 +4°C° 0 mm 1 mps 748 mmHg 92%
    01:00 +4°C° 0 mm 1 mps 748 mmHg 90%
    02:00 +4°C° 0 mm 1 mps 748 mmHg 89%
    03:00 +4°C° 0 mm 1 mps 749 mmHg 88%
    04:00 +4°C° 0 mm 1 mps 749 mmHg 89%
    05:00 +3°C° 0 mm 2 mps 749 mmHg 90%
    06:00 +3°C° 0 mm 2 mps 749 mmHg 91%
    07:00 +4°C° 0 mm 2 mps 749 mmHg 92%
    08:00 +3°C° 0 mm 3 mps 749 mmHg 93%
    09:00 +3°C° 0 mm 3 mps 749 mmHg 94%
    10:00 +5°C° 0 mm 4 mps 749 mmHg 91%
    11:00 +6°C° 0 mm 4 mps 749 mmHg 88%
    12:00 +7°C° 0 mm 5 mps 749 mmHg 84%
    13:00 +7°C° 0 mm 5 mps 748 mmHg 84%
    14:00 +7°C° 0 mm 5 mps 747 mmHg 84%
    15:00 +6°C° 0 mm 5 mps 747 mmHg 84%
    16:00 +6°C° 0 mm 5 mps 746 mmHg 87%
    17:00 +5°C° 0 mm 6 mps 746 mmHg 89%
    18:00 +5°C° 0 mm 6 mps 745 mmHg 92%
    19:00 +5°C° 0 mm 7 mps 745 mmHg 92%
    20:00 +6°C° 0 mm 7 mps 744 mmHg 92%
    21:00 +8°C° 0 mm 7 mps 744 mmHg 91%
    22:00 +8°C° 0 mm 7 mps 743 mmHg 91%
    23:00 +8°C° 0 mm 7 mps 743 mmHg 91%

    19 Diciembre, Jueves

    Tiempo Temperatura Precipitaciones Viento Presión Humedad
    00:00 +8°C° 0 mm 7 mps 742 mmHg 91%
    01:00 +9°C° 0.6 mm 7 mps 742 mmHg 91%
    02:00 +9°C° 0.6 mm 7 mps 741 mmHg 92%
    03:00 +9°C° 0.6 mm 8 mps 741 mmHg 93%
    04:00 +9°C° 0.5 mm 7 mps 740 mmHg 93%
    05:00 +9°C° 0.5 mm 7 mps 740 mmHg 93%
    06:00 +9°C° 0.5 mm 7 mps 740 mmHg 93%
    07:00 +9°C° 0.9 mm 7 mps 740 mmHg 93%
    08:00 +9°C° 0.9 mm 7 mps 740 mmHg 93%
    09:00 +9°C° 0.9 mm 7 mps 740 mmHg 93%
    10:00 +9°C° 0.8 mm 6 mps 740 mmHg 93%
    11:00 +9°C° 0.8 mm 6 mps 740 mmHg 93%
    12:00 +9°C° 0.8 mm 5 mps 739 mmHg 93%
    13:00 +9°C° 1.4 mm 5 mps 739 mmHg 93%
    14:00 +9°C° 1.4 mm 5 mps 739 mmHg 93%
    15:00 +9°C° 1.4 mm 5 mps 739 mmHg 93%
    16:00 +10°C° 0.2 mm 4 mps 739 mmHg 94%
    17:00 +10°C° 0.2 mm 3 mps 738 mmHg 95%
    18:00 +10°C° 0.2 mm 3 mps 738 mmHg 95%
    19:00 +9°C° 0 mm 2 mps 738 mmHg 96%
    20:00 +9°C° 0 mm 2 mps 738 mmHg 97%
    21:00 +9°C° 0 mm 2 mps 738 mmHg 97%
    22:00 +9°C° 0.1 mm 2 mps 738 mmHg 97%
    23:00 +10°C° 0.1 mm 1 mps 737 mmHg 97%

    20 Diciembre, Viernes

    Tiempo Temperatura Precipitaciones Viento Presión Humedad
    00:00 +9°C° 0.1 mm 1 mps 737 mmHg 97%
    01:00 +9°C° 0.1 mm 1 mps 737 mmHg 96%
    02:00 +9°C° 0.1 mm 1 mps 737 mmHg 96%
    03:00 +9°C° 0.1 mm 1 mps 736 mmHg 95%
    04:00 +9°C° 0 mm 1 mps 736 mmHg 95%
    05:00 +7°C° 0 mm 2 mps 736 mmHg 95%
    06:00 +7°C° 0 mm 2 mps 736 mmHg 95%
    07:00 +7°C° 0 mm 2 mps 736 mmHg 94%
    08:00 +7°C° 0 mm 2 mps 737 mmHg 94%
    09:00 +7°C° 0 mm 2 mps 737 mmHg 94%
    10:00 +7°C° 0 mm 2 mps 737 mmHg 91%
    11:00 +8°C° 0 mm 3 mps 737 mmHg 88%
    12:00 +8°C° 0 mm 3 mps 737 mmHg 86%
    13:00 +8°C° 0 mm 3 mps 737 mmHg 86%
    14:00 +8°C° 0 mm 2 mps 737 mmHg 87%
    15:00 +7°C° 0 mm 2 mps 737 mmHg 88%
    16:00 +7°C° 0 mm 2 mps 737 mmHg 90%
    17:00 +6°C° 0 mm 2 mps 737 mmHg 91%
    18:00 +5°C° 0 mm 2 mps 737 mmHg 93%
    19:00 +5°C° 0 mm 2 mps 737 mmHg 93%
    20:00 +5°C° 0 mm 2 mps 737 mmHg 93%
    21:00 +5°C° 0 mm 2 mps 737 mmHg 93%
    22:00 +5°C° 0 mm 2 mps 738 mmHg 93%
    23:00 +5°C° 0 mm 2 mps 738 mmHg 94%

    21 Diciembre, Sábado

    Tiempo Temperatura Precipitaciones Viento Presión Humedad
    00:00 +5°C° 0 mm 2 mps 738 mmHg 94%
    01:00 +6°C° 0 mm 1 mps 738 mmHg 94%
    02:00 +6°C° 0 mm 1 mps 738 mmHg 93%
    03:00 +6°C° 0 mm 1 mps 739 mmHg 93%
    04:00 +6°C° 0.1 mm 1 mps 739 mmHg 93%
    05:00 +6°C° 0.1 mm 1 mps 739 mmHg 93%
    06:00 +4°C° 0.1 mm 2 mps 740 mmHg 94%
    07:00 +4°C° 0 mm 2 mps 740 mmHg 93%
    08:00 +4°C° 0 mm 2 mps 740 mmHg 92%
    09:00 +4°C° 0 mm 2 mps 741 mmHg 91%
    10:00 +4°C° 0 mm 3 mps 741 mmHg 88%
    11:00 +5°C° 0 mm 3 mps 741 mmHg 85%
    12:00 +6°C° 0 mm 4 mps 741 mmHg 81%
    13:00 +6°C° 0 mm 5 mps 740 mmHg 82%
    14:00 +7°C° 0 mm 5 mps 740 mmHg 82%
    15:00 +7°C° 0 mm 6 mps 739 mmHg 83%
    16:00 +6°C° 1.1 mm 7 mps 738 mmHg 86%
    17:00 +6°C° 1.1 mm 8 mps 737 mmHg 88%
    18:00 +6°C° 1.1 mm 10 mps 736 mmHg 91%
    19:00 +6°C° 0.2 mm 8 mps 736 mmHg 91%
    20:00 +6°C° 0.2 mm 7 mps 735 mmHg 90%
    21:00 +8°C° 0.2 mm 5 mps 735 mmHg 89%
    22:00 +8°C° 0.9 mm 6 mps 735 mmHg 89%
    23:00 +8°C° 0.9 mm 7 mps 734 mmHg 88%
    Mostrar más